Stündliche Wetter Warlow

Heute, 24 Oktober, Samstag

Zeit Temperatur Niederschläge Wind Luftdruck Luftfeuchtigkeit
00:00 +12°C° 0 mm 3 m/S 739 mmHg 80%
01:00 +12°C° 0 mm 3 m/S 739 mmHg 80%
02:00 +12°C° 0.1 mm 3 m/S 739 mmHg 83%
03:00 +12°C° 0.1 mm 3 m/S 739 mmHg 85%
04:00 +12°C° 0.1 mm 3 m/S 739 mmHg 88%
05:00 +12°C° 0.1 mm 3 m/S 739 mmHg 90%
06:00 +12°C° 0.1 mm 3 m/S 739 mmHg 92%
07:00 +12°C° 0.1 mm 3 m/S 740 mmHg 94%
08:00 +13°C° 0 mm 3 m/S 740 mmHg 90%
09:00 +14°C° 0 mm 3 m/S 740 mmHg 86%
10:00 +14°C° 0 mm 3 m/S 741 mmHg 81%
11:00 +16°C° 0 mm 3 m/S 741 mmHg 77%
12:00 +17°C° 0 mm 3 m/S 741 mmHg 73%
13:00 +17°C° 0 mm 3 m/S 741 mmHg 69%
14:00 +17°C° 0 mm 3 m/S 741 mmHg 72%
15:00 +16°C° 0 mm 2 m/S 741 mmHg 74%
16:00 +16°C° 0 mm 1 m/S 741 mmHg 76%
17:00 +15°C° 0 mm 1 m/S 741 mmHg 80%
18:00 +14°C° 0 mm 1 m/S 741 mmHg 83%
19:00 +13°C° 0 mm 1 m/S 742 mmHg 86%
20:00 +13°C° 0 mm 1 m/S 742 mmHg 87%
21:00 +13°C° 0 mm 1 m/S 742 mmHg 88%
22:00 +12°C° 0 mm 1 m/S 742 mmHg 89%
23:00 +12°C° 0 mm 1 m/S 742 mmHg 90%

Morgen, 25 Oktober, Sonntag

Zeit Temperatur Niederschläge Wind Luftdruck Luftfeuchtigkeit
00:00 +11°C° 0 mm 1 m/S 742 mmHg 92%
01:00 +11°C° 0 mm 1 m/S 742 mmHg 93%
02:00 +11°C° 0 mm 1 m/S 741 mmHg 93%
03:00 +11°C° 0 mm 1 m/S 741 mmHg 93%
04:00 +10°C° 0 mm 1 m/S 741 mmHg 93%
05:00 +10°C° 0 mm 1 m/S 741 mmHg 94%
06:00 +9°C° 0 mm 2 m/S 741 mmHg 94%
07:00 +9°C° 0 mm 2 m/S 741 mmHg 94%
08:00 +12°C° 0 mm 2 m/S 741 mmHg 88%
09:00 +13°C° 0 mm 2 m/S 741 mmHg 82%
10:00 +14°C° 0 mm 3 m/S 741 mmHg 76%
11:00 +16°C° 0 mm 3 m/S 741 mmHg 72%
12:00 +17°C° 0 mm 3 m/S 740 mmHg 68%
13:00 +18°C° 0 mm 3 m/S 740 mmHg 63%
14:00 +17°C° 0 mm 3 m/S 739 mmHg 66%
15:00 +16°C° 0 mm 3 m/S 739 mmHg 68%
16:00 +16°C° 0 mm 3 m/S 739 mmHg 71%
17:00 +14°C° 0 mm 3 m/S 739 mmHg 75%
18:00 +13°C° 0 mm 3 m/S 739 mmHg 78%
19:00 +11°C° 0 mm 3 m/S 739 mmHg 82%
20:00 +11°C° 0 mm 3 m/S 739 mmHg 85%
21:00 +11°C° 0 mm 3 m/S 738 mmHg 87%
22:00 +10°C° 0 mm 3 m/S 738 mmHg 89%
23:00 +10°C° 0 mm 3 m/S 738 mmHg 90%

übermorgen, 26 Oktober, Montag

Zeit Temperatur Niederschläge Wind Luftdruck Luftfeuchtigkeit
00:00 +10°C° 0 mm 3 m/S 737 mmHg 91%
01:00 +10°C° 0 mm 3 m/S 737 mmHg 91%
02:00 +10°C° 0 mm 3 m/S 737 mmHg 92%
03:00 +10°C° 0 mm 3 m/S 736 mmHg 92%
04:00 +10°C° 0 mm 3 m/S 736 mmHg 92%
05:00 +9°C° 0 mm 3 m/S 736 mmHg 92%
06:00 +9°C° 0 mm 3 m/S 735 mmHg 92%
07:00 +9°C° 0 mm 3 m/S 735 mmHg 92%
08:00 +11°C° 0 mm 3 m/S 735 mmHg 85%
09:00 +12°C° 0 mm 3 m/S 735 mmHg 78%
10:00 +14°C° 0 mm 3 m/S 735 mmHg 71%
11:00 +14°C° 0 mm 3 m/S 735 mmHg 68%
12:00 +16°C° 0 mm 3 m/S 735 mmHg 66%
13:00 +16°C° 0 mm 3 m/S 735 mmHg 64%
14:00 +16°C° 0 mm 3 m/S 735 mmHg 68%
15:00 +14°C° 0 mm 3 m/S 734 mmHg 72%
16:00 +13°C° 0 mm 3 m/S 734 mmHg 75%
17:00 +13°C° 0.1 mm 3 m/S 734 mmHg 77%
18:00 +13°C° 0.1 mm 3 m/S 735 mmHg 79%
19:00 +13°C° 0.1 mm 3 m/S 735 mmHg 80%
20:00 +12°C° 0 mm 3 m/S 735 mmHg 82%
21:00 +13°C° 0 mm 2 m/S 735 mmHg 84%
22:00 +13°C° 0 mm 2 m/S 735 mmHg 86%
23:00 +13°C° 0.2 mm 1 m/S 735 mmHg 87%

, 27 Oktober, Dienstag

Zeit Temperatur Niederschläge Wind Luftdruck Luftfeuchtigkeit
00:00 +13°C° 0.2 mm 1 m/S 735 mmHg 88%
01:00 +13°C° 0.2 mm 1 m/S 735 mmHg 89%
02:00 +13°C° 0 mm 1 m/S 735 mmHg 87%
03:00 +13°C° 0 mm 2 m/S 735 mmHg 86%
04:00 +13°C° 0 mm 2 m/S 735 mmHg 85%
05:00 +12°C° 0 mm 3 m/S 735 mmHg 85%
06:00 +11°C° 0 mm 3 m/S 736 mmHg 85%
07:00 +11°C° 0 mm 3 m/S 736 mmHg 84%
08:00 +13°C° 0 mm 4 m/S 736 mmHg 78%
09:00 +14°C° 0 mm 4 m/S 736 mmHg 72%
10:00 +15°C° 0 mm 5 m/S 736 mmHg 66%
11:00 +16°C° 0 mm 5 m/S 736 mmHg 63%
12:00 +17°C° 0 mm 5 m/S 737 mmHg 59%
13:00 +19°C° 0 mm 5 m/S 737 mmHg 56%
14:00 +18°C° 0 mm 4 m/S 737 mmHg 61%
15:00 +17°C° 0 mm 3 m/S 737 mmHg 66%
16:00 +16°C° 0 mm 2 m/S 737 mmHg 70%
17:00 +16°C° 0 mm 1 m/S 737 mmHg 73%
18:00 +15°C° 0 mm 1 m/S 738 mmHg 76%
19:00 +14°C° 0 mm 1 m/S 738 mmHg 79%
20:00 +14°C° 0 mm 1 m/S 738 mmHg 81%
21:00 +13°C° 0 mm 1 m/S 739 mmHg 84%
22:00 +13°C° 0 mm 1 m/S 739 mmHg 87%
23:00 +12°C° 0 mm 1 m/S 739 mmHg 90%

27 Oktober, Dienstag

Zeit Temperatur Niederschläge Wind Luftdruck Luftfeuchtigkeit
00:00 +13°C° 0.2 mm 1 m/S 735 mmHg 88%
01:00 +13°C° 0.2 mm 1 m/S 735 mmHg 89%
02:00 +13°C° 0 mm 1 m/S 735 mmHg 87%
03:00 +13°C° 0 mm 2 m/S 735 mmHg 86%
04:00 +13°C° 0 mm 2 m/S 735 mmHg 85%
05:00 +12°C° 0 mm 3 m/S 735 mmHg 85%
06:00 +11°C° 0 mm 3 m/S 736 mmHg 85%
07:00 +11°C° 0 mm 3 m/S 736 mmHg 84%
08:00 +13°C° 0 mm 4 m/S 736 mmHg 78%
09:00 +14°C° 0 mm 4 m/S 736 mmHg 72%
10:00 +15°C° 0 mm 5 m/S 736 mmHg 66%
11:00 +16°C° 0 mm 5 m/S 736 mmHg 63%
12:00 +17°C° 0 mm 5 m/S 737 mmHg 59%
13:00 +19°C° 0 mm 5 m/S 737 mmHg 56%
14:00 +18°C° 0 mm 4 m/S 737 mmHg 61%
15:00 +17°C° 0 mm 3 m/S 737 mmHg 66%
16:00 +16°C° 0 mm 2 m/S 737 mmHg 70%
17:00 +16°C° 0 mm 1 m/S 737 mmHg 73%
18:00 +15°C° 0 mm 1 m/S 738 mmHg 76%
19:00 +14°C° 0 mm 1 m/S 738 mmHg 79%
20:00 +14°C° 0 mm 1 m/S 738 mmHg 81%
21:00 +13°C° 0 mm 1 m/S 739 mmHg 84%
22:00 +13°C° 0 mm 1 m/S 739 mmHg 87%
23:00 +12°C° 0 mm 1 m/S 739 mmHg 90%

28 Oktober, Mittwoch

Zeit Temperatur Niederschläge Wind Luftdruck Luftfeuchtigkeit
00:00 +12°C° 0 mm 1 m/S 739 mmHg 92%
01:00 +11°C° 0 mm 1 m/S 739 mmHg 94%
02:00 +11°C° 0 mm 1 m/S 739 mmHg 95%
03:00 +11°C° 0 mm 1 m/S 739 mmHg 96%
04:00 +10°C° 0 mm 1 m/S 739 mmHg 96%
05:00 +11°C° 0 mm 1 m/S 740 mmHg 96%
06:00 +11°C° 0 mm 1 m/S 740 mmHg 95%
07:00 +11°C° 0 mm 1 m/S 740 mmHg 94%
08:00 +11°C° 0 mm 1 m/S 740 mmHg 91%
09:00 +12°C° 0 mm 1 m/S 740 mmHg 88%
10:00 +13°C° 0 mm 1 m/S 740 mmHg 86%
11:00 +13°C° 0 mm 1 m/S 740 mmHg 82%
12:00 +14°C° 0 mm 1 m/S 740 mmHg 79%
13:00 +15°C° 0 mm 2 m/S 740 mmHg 75%
14:00 +15°C° 0 mm 2 m/S 740 mmHg 78%
15:00 +14°C° 0 mm 2 m/S 740 mmHg 80%
16:00 +14°C° 0 mm 1 m/S 739 mmHg 83%
17:00 +13°C° 0 mm 2 m/S 740 mmHg 85%
18:00 +12°C° 0 mm 2 m/S 740 mmHg 88%
19:00 +12°C° 0 mm 2 m/S 740 mmHg 91%
20:00 +10°C° 0 mm 2 m/S 740 mmHg 91%
21:00 +10°C° 0 mm 2 m/S 740 mmHg 92%
22:00 +10°C° 0 mm 2 m/S 740 mmHg 92%
23:00 +9°C° 0 mm 2 m/S 741 mmHg 92%

29 Oktober, Donnerstag

Zeit Temperatur Niederschläge Wind Luftdruck Luftfeuchtigkeit
00:00 +9°C° 0 mm 2 m/S 741 mmHg 92%
01:00 +9°C° 0 mm 2 m/S 741 mmHg 92%
02:00 +9°C° 0 mm 2 m/S 741 mmHg 91%
03:00 +8°C° 0 mm 2 m/S 741 mmHg 90%
04:00 +8°C° 0 mm 2 m/S 741 mmHg 88%
05:00 +8°C° 0 mm 2 m/S 741 mmHg 86%
06:00 +8°C° 0 mm 3 m/S 742 mmHg 84%
07:00 +8°C° 0 mm 3 m/S 742 mmHg 81%
08:00 +9°C° 0 mm 3 m/S 742 mmHg 76%
09:00 +11°C° 0 mm 4 m/S 743 mmHg 70%
10:00 +12°C° 0 mm 5 m/S 743 mmHg 64%
11:00 +12°C° 0 mm 5 m/S 743 mmHg 63%
12:00 +13°C° 0 mm 5 m/S 743 mmHg 61%
13:00 +13°C° 0 mm 5 m/S 744 mmHg 60%
14:00 +13°C° 0 mm 4 m/S 744 mmHg 62%
15:00 +12°C° 0 mm 3 m/S 744 mmHg 65%
16:00 +12°C° 0 mm 3 m/S 745 mmHg 67%
17:00 +12°C° 0 mm 2 m/S 745 mmHg 70%
18:00 +10°C° 0 mm 2 m/S 746 mmHg 74%
19:00 +10°C° 0 mm 2 m/S 746 mmHg 77%
20:00 +9°C° 0 mm 2 m/S 747 mmHg 78%
21:00 +9°C° 0 mm 2 m/S 747 mmHg 80%
22:00 +8°C° 0 mm 2 m/S 747 mmHg 81%
23:00 +8°C° 0 mm 2 m/S 747 mmHg 82%
Mehr zeigen

Wir brauchen deine Erlaubnis

Meteoprog und unser Service Anbieter werden persönliche Daten aufbewahren, so wie Cookies, Geräte Bezeichnung oder ähnliche Technologien von deinem Gerät und Prozess, so wie Persönliche Daten Inhalte und Werbungen, genauso wie social Media und den Verkehr zu analysieren.

  • Aufbewahrung und/oder Zugang zu deiner Geräte Informationen.

    Cookies, Geräte Bezeichnung oder andere Informationen, können aufbewahrt oder Zugang zu deinem Gerät erhalten, für den Grund, der oben angegeben wird.

  • Personalisierte Werbung und Inhalte, Messungen, Einblick in das Publikum und Produkt Entwicklung.

    Werbungen und Inhalte können personalisiert werden, basierend auf ein Profil. Mehr Daten können besser personalisierte Werbungen und Inhalte hinzufügen. Werbung und Inhalte können gezeigt und gemessen werden. Einblicke über das Publikum, welche die Werbung gesehen haben und den Inhalt, können abgeleitet werden. So wie Daten können genutzt werden, um es zu verbessern oder die Benutzer Erfahrung zu verbessern das System und die Software.

Wenn du “Ich stimme zu” klickst, erlaubst du uns, die Cookies zu benutzen die Geräte Bezeichnung, den Web oder ähnliche Technologien zu benutzen. Deine Settings, können in deinem Gerät bei deinem Browser geändert werden.

Für den bestimmten Zweck, berechtigten Interessen beruhen darauf, mehr als auf den Inhalt. Du kannst mehr darüber in unseren Privaten und Cookie Politik lesen.